Weather History for NW Arkansas Airport, AR

Change the Weather History Date:

Tuesday, February 4, 2014

  Actual Average Record
Temperature  
Mean Temperature 27 °F -  
Max Temperature 30 °F - - ()
Min Temperature 24 °F - - ()
Degree Days  
Heating Degree Days 38    
Moisture  
Dew Point 25 °F    
Average Humidity 87    
Maximum Humidity 100    
Minimum Humidity 51    
Precipitation  
Precipitation 0.20 in - - ()
Sea Level Pressure  
Sea Level Pressure 29.96 in    
Wind  
Wind Speed 10 mph (ENE)    
Max Wind Speed 18 mph    
Max Gust Speed 28 mph    
Visibility 4 miles    
Events Rain , Snow    
T = Trace of Precipitation, MM = Missing Value Source: NWS Daily Summary

Daily Weather History Graph

Daily Weather History Graph

Search for Another Location

Airport:

Trip Planner

Search our weather history database for the weather conditions in past years. The results will help you decide how hot, cold, wet, or windy it might be!

Date:

Astronomy

Feb. 04, 2014 Rise Set
Actual Time 7:15 AM CST 5:46 PM CST
Civil Twilight 6:48 AM CST 6:13 PM CST
Nautical Twilight 6:18 AM CST 6:44 PM CST
Astronomical Twilight 5:48 AM CST 7:14 PM CST
Moon 10:05 AM CST (2/4) 11:29 PM CST (2/4)
Length of Visible Light 11h 24m
Length of Day
10h 31m
Waxing Crescent, 29% of the Moon is Illuminated
Feb 4
Waxing Crescent
Feb 6
First Quarter
Feb 14
Full
Feb 22
Last Quarter
Mar 1
New

Hourly Weather History & Observations

Time (CST) Temp. Windchill Dew Point Humidity Pressure Visibility Wind Dir Wind Speed Gust Speed Precip Events Conditions
12:53 AM 28.9 °F 21.1 °F 15.1 °F 56% 30.13 in 10.0 mi East 8.1 mph - N/A   Mostly Cloudy
1:53 AM 28.9 °F 21.1 °F 14.0 °F 54% 30.13 in 10.0 mi East 8.1 mph - N/A   Scattered Clouds
2:53 AM 28.9 °F 18.6 °F 12.9 °F 51% 30.08 in 10.0 mi East 12.7 mph - N/A   Overcast
3:53 AM 28.9 °F 19.8 °F 15.1 °F 56% 30.10 in 10.0 mi ENE 10.4 mph - 0.00 in   Overcast
4:53 AM 28.0 °F 18.6 °F 12.9 °F 53% 30.09 in 10.0 mi East 10.4 mph - N/A   Overcast
5:53 AM 27.0 °F 17.3 °F 15.1 °F 61% 30.08 in 10.0 mi East 10.4 mph - 0.00 in   Overcast
6:53 AM 26.1 °F 15.0 °F 18.0 °F 71% 30.06 in 3.0 mi ENE 12.7 mph 18.4 mph 0.02 in Snow Snow
6:59 AM 24.8 °F 11.9 °F 19.4 °F 80% 30.03 in 2.0 mi East 16.1 mph 19.6 mph 0.01 in Snow Snow
7:05 AM 24.8 °F 11.9 °F 19.4 °F 80% 30.03 in 0.8 mi East 16.1 mph - 0.01 in Snow Snow
7:17 AM 24.8 °F 11.5 °F 21.2 °F 86% 30.01 in 0.8 mi ENE 17.3 mph - 0.02 in Snow Snow
7:29 AM 24.8 °F 11.5 °F 21.2 °F 86% 30.00 in 1.5 mi ENE 17.3 mph 27.6 mph 0.02 in Snow Snow
7:36 AM 24.8 °F 11.9 °F 21.2 °F 86% 29.99 in 3.0 mi ENE 16.1 mph 27.6 mph 0.02 in Snow Snow
7:44 AM 24.8 °F 11.1 °F 21.2 °F 86% 29.98 in 3.0 mi ENE 18.4 mph 24.2 mph 0.02 in Rain Light Freezing Rain
7:53 AM 25.0 °F 11.7 °F 21.9 °F 88% 30.01 in 3.0 mi ENE 17.3 mph 24.2 mph 0.02 in Rain Light Freezing Rain
8:53 AM 26.1 °F 13.6 °F 21.9 °F 84% 29.99 in 4.0 mi East 16.1 mph 24.2 mph 0.01 in Rain Light Freezing Rain
9:10 AM 26.6 °F 16.2 °F 24.8 °F 93% 29.95 in 3.0 mi East 11.5 mph - 0.02 in Rain Light Freezing Rain
9:29 AM 26.6 °F 14.3 °F 24.8 °F 93% 29.95 in 4.0 mi East 16.1 mph 23.0 mph 0.04 in Rain Light Freezing Rain
9:33 AM 26.6 °F 13.8 °F 24.8 °F 93% 29.94 in 3.0 mi East 17.3 mph 23.0 mph 0.04 in Rain Light Freezing Rain
9:53 AM 27.0 °F 15.6 °F 26.1 °F 96% 29.98 in 4.0 mi East 13.8 mph 21.9 mph 0.07 in Rain Light Freezing Rain
10:05 AM 28.4 °F 16.6 °F 24.8 °F 86% 29.98 in 4.0 mi SE 16.1 mph 23.0 mph 0.02 in Rain Light Freezing Rain
10:27 AM 28.4 °F 18.5 °F 24.8 °F 86% 29.95 in 3.0 mi East 11.5 mph - 0.05 in Rain Light Freezing Rain
10:32 AM 28.4 °F 18.0 °F 24.8 °F 86% 29.96 in 3.0 mi East 12.7 mph - 0.05 in   Overcast
10:53 AM 28.0 °F 18.1 °F 25.0 °F 88% 29.99 in 6.0 mi East 11.5 mph - 0.06 in Rain Light Freezing Rain
11:08 AM 28.4 °F 19.7 °F 26.6 °F 93% 29.95 in 5.0 mi East 9.2 mph - 0.00 in Snow Light Snow
11:53 AM 28.9 °F 21.1 °F 27.0 °F 92% 29.95 in 7.0 mi East 8.1 mph - 0.01 in   Overcast
12:11 PM 28.4 °F 22.2 °F 26.6 °F 93% 29.91 in 1.8 mi East 5.8 mph - 0.00 in Snow Light Snow
12:18 PM 28.4 °F 21.2 °F 26.6 °F 93% 29.90 in 1.5 mi East 6.9 mph - 0.00 in Snow Light Snow
12:37 PM 28.4 °F 21.2 °F 26.6 °F 93% 29.89 in 1.0 mi ENE 6.9 mph - 0.00 in Snow Light Snow
12:53 PM 28.9 °F 22.8 °F 27.0 °F 92% 29.91 in 1.5 mi East 5.8 mph - 0.00 in   Overcast
1:19 PM 28.4 °F 19.7 °F 26.6 °F 93% 29.88 in 2.5 mi East 9.2 mph - N/A   Overcast
1:26 PM 28.4 °F 20.4 °F 26.6 °F 93% 29.89 in 4.0 mi ESE 8.1 mph - N/A   Overcast
1:48 PM 28.4 °F 23.3 °F 28.4 °F 100% 29.86 in 2.5 mi East 4.6 mph - N/A   Overcast
1:53 PM 28.9 °F 22.8 °F 28.0 °F 96% 29.88 in 3.0 mi ENE 5.8 mph - N/A   Overcast
2:53 PM 28.9 °F 23.9 °F 28.0 °F 96% 29.88 in 3.0 mi East 4.6 mph - N/A   Overcast
3:10 PM 30.2 °F 24.3 °F 28.4 °F 93% 29.85 in 2.5 mi East 5.8 mph - N/A   Overcast
3:53 PM 30.0 °F 26.5 °F 28.9 °F 96% 29.88 in 1.8 mi East 3.5 mph - N/A   Overcast
4:01 PM 30.2 °F 26.7 °F 28.4 °F 93% 29.85 in 1.5 mi East 3.5 mph - N/A   Overcast
4:53 PM 30.0 °F - 28.9 °F 96% 29.89 in 0.8 mi Calm Calm - N/A   Overcast
5:14 PM 30.2 °F 26.7 °F 28.4 °F 93% 29.85 in 1.0 mi ENE 3.5 mph - N/A   Overcast
5:29 PM 28.4 °F 24.6 °F 28.4 °F 100% 29.85 in 0.8 mi ENE 3.5 mph - N/A   Overcast
5:53 PM 30.0 °F - 28.9 °F 96% 29.90 in 1.0 mi Calm Calm - N/A   Overcast
6:53 PM 30.0 °F - 30.0 °F 100% 29.92 in 1.8 mi Calm Calm - N/A   Overcast
7:48 PM 30.2 °F 24.3 °F 30.2 °F 100% 29.91 in 2.5 mi West 5.8 mph - 0.01 in Snow Light Snow
7:53 PM 30.9 °F 25.2 °F 30.0 °F 96% 29.94 in 3.0 mi West 5.8 mph - 0.01 in Snow Light Snow
8:53 PM 30.9 °F 22.2 °F 28.9 °F 92% 29.96 in 6.0 mi WNW 10.4 mph - 0.00 in   Overcast
9:12 PM 30.2 °F 21.3 °F 28.4 °F 93% 29.94 in 8.0 mi West 10.4 mph - N/A   Overcast
9:23 PM 30.2 °F 22.6 °F 28.4 °F 93% 29.94 in 7.0 mi West 8.1 mph - N/A   Overcast
9:31 PM 30.2 °F 23.4 °F 28.4 °F 93% 29.94 in 7.0 mi West 6.9 mph - N/A   Overcast
9:53 PM 30.0 °F 21.7 °F 28.0 °F 92% 29.97 in 7.0 mi West 9.2 mph - N/A   Overcast
10:27 PM 30.2 °F 19.8 °F 28.4 °F 93% 29.95 in 6.0 mi West 13.8 mph 19.6 mph 0.00 in   Overcast
10:53 PM 28.9 °F 20.4 °F 27.0 °F 92% 29.99 in 8.0 mi WNW 9.2 mph - 0.00 in   Overcast
11:05 PM 28.4 °F 21.2 °F 26.6 °F 93% 29.97 in 8.0 mi WNW 6.9 mph - N/A   Overcast
11:18 PM 28.4 °F 19.1 °F 26.6 °F 93% 29.97 in 8.0 mi WNW 10.4 mph - N/A   Overcast
11:53 PM 28.9 °F 17.7 °F 26.1 °F 89% 30.01 in 7.0 mi WNW 15.0 mph - N/A   Overcast